Humidity-temperature Sensor

Selected Measurement Type: Relative Humidity

 
Relative Humidity [%]     6 entries per hour
Showing data from 5/17/2022 (00:00:00 Z) to 5/10/2022 (00:01:00 Z)
Previous Next [ Day | 3-Days | 7-Days ]
First Last
Prev [ Day | 3-Days | 7-Days ] Next
First Last

Start Time:     :
End Time:     :     
Time (in GMT) :00 :50 :40 :30 :20 :10
Previous Next [ Day | 3-Days | 7-Days ]
First Last
Prev [ Day | 3-Days | 7-Days ] Next
First Last


123 => good data
MM => data is determined as missing
-- => data not received/configured
Back to Top Back to Top
5/17/2022 00:00 to 23:10 96.35 96.51 96.35 96.80 97.11 97.50
5/16/2022 23:00 to 22:10 97.89 98.11 98.22 98.38 98.73 98.67
5/16/2022 22:00 to 21:10 98.30 98.36 98.24 98.14 98.30 98.40
5/16/2022 21:00 to 20:10 97.83 98.03 97.74 97.72 97.87 98.01
5/16/2022 20:00 to 19:10 98.38 98.90 99.02 99.16 99.59 99.68
5/16/2022 19:00 to 18:10 99.88 99.80 99.88 99.90 99.66 99.57
5/16/2022 18:00 to 17:10 98.96 99.02 98.22 97.62 96.74 95.38
5/16/2022 17:00 to 16:10 93.33 90.22 89.87 89.94 89.77 89.81
5/16/2022 16:00 to 15:10 89.11 89.07 89.20 89.30 89.46 89.71
5/16/2022 15:00 to 14:10 89.81 89.77 89.92 89.67 89.57 89.55
5/16/2022 14:00 to 13:10 89.57 89.73 89.61 89.77 90.16 90.14
5/16/2022 13:00 to 12:10 90.22 90.39 91.35 92.77 93.35 93.33
5/16/2022 12:00 to 11:10 93.31 92.28 90.55 89.85 89.63 89.67
5/16/2022 11:00 to 10:10 89.69 90.22 90.84 90.74 90.27 90.39
5/16/2022 10:00 to 9:10 90.31 90.37 90.16 90.29 90.51 90.98
5/16/2022 09:00 to 8:10 91.68 91.70 91.77 92.30 92.28 92.01
5/16/2022 08:00 to 7:10 91.89 92.03 92.26 92.24 92.63 93.22
5/16/2022 07:00 to 6:10 94.09 94.29 93.86 93.29 93.10 92.85
5/16/2022 06:00 to 5:10 92.92 92.63 91.68 91.48 91.50 91.56
5/16/2022 05:00 to 4:10 91.19 90.45 89.75 89.59 89.32 89.03
5/16/2022 04:00 to 3:10 88.79 88.89 88.77 88.66 88.77 88.85
5/16/2022 03:00 to 2:10 88.93 88.79 89.13 89.13 89.03 88.64
5/16/2022 02:00 to 1:10 88.40 88.68 88.62 89.01 89.34 89.13
5/16/2022 01:00 to 0:10 88.97 88.85 88.83 88.29 88.37 88.70
5/16/2022 00:00 to 23:10 88.95 88.95 89.07 88.91 89.13 89.18
5/15/2022 23:00 to 22:10 89.03 89.11 89.32 89.26 89.16 89.34
5/15/2022 22:00 to 21:10 89.42 89.28 89.28 89.34 89.22 89.55
5/15/2022 21:00 to 20:10 89.65 89.79 89.71 89.22 88.85 88.95
5/15/2022 20:00 to 19:10 89.38 89.77 89.73 89.24 89.55 90.24
5/15/2022 19:00 to 18:10 91.42 92.85 93.72 94.97 95.59 96.27
5/15/2022 18:00 to 17:10 96.80 97.38 97.89 98.63 99.04 99.53
5/15/2022 17:00 to 16:10 99.57 99.70 99.84 99.86 99.66 99.70
5/15/2022 16:00 to 15:10 99.45 99.27 98.46 97.56 96.12 95.05
5/15/2022 15:00 to 14:10 93.35 89.61 88.35 88.54 88.99 88.29
5/15/2022 14:00 to 13:10 88.72 89.32 89.34 89.11 89.09 89.22
5/15/2022 13:00 to 12:10 89.92 89.90 90.43 90.47 89.77 89.46
5/15/2022 12:00 to 11:10 89.46 89.63 89.65 89.85 89.94 90.43
5/15/2022 11:00 to 10:10 91.13 91.33 91.56 92.46 92.92 93.37
5/15/2022 10:00 to 9:10 93.59 93.53 93.70 94.31 94.64 94.83
5/15/2022 09:00 to 8:10 94.64 95.05 95.51 95.55 95.90 95.63
5/15/2022 08:00 to 7:10 95.79 95.81 95.83 95.40 95.59 95.75
5/15/2022 07:00 to 6:10 95.96 96.27 96.55 96.74 97.03 97.15
5/15/2022 06:00 to 5:10 97.44 97.56 97.54 97.23 96.96 96.66
5/15/2022 05:00 to 4:10 96.86 97.25 97.17 96.94 96.88 97.27
5/15/2022 04:00 to 3:10 97.62 97.89 98.05 98.07 98.22 98.44
5/15/2022 03:00 to 2:10 98.53 98.73 98.61 98.53 98.22 98.38
5/15/2022 02:00 to 1:10 98.55 98.65 99.04 98.98 99.33 99.33
5/15/2022 01:00 to 0:10 99.47 99.57 99.66 99.78 99.78 99.98
5/15/2022 00:00 to 23:10 99.76 99.82 99.90 100.01 99.94 100.05
5/14/2022 23:00 to 22:10 99.82 99.53 99.31 99.08 98.88 98.57
5/14/2022 22:00 to 21:10 98.59 98.55 98.55 98.26 98.22 97.93
5/14/2022 21:00 to 20:10 97.52 97.46 97.64 98.05 97.85 97.54
5/14/2022 20:00 to 19:10 96.66 96.57 96.61 96.86 97.01 97.35
5/14/2022 19:00 to 18:10 97.48 97.77 97.74 97.66 97.50 97.38
5/14/2022 18:00 to 17:10 97.64 98.20 98.55 99.06 99.41 99.86
5/14/2022 17:00 to 16:10 100.01 100.09 100.23 99.88 99.37 98.83
5/14/2022 16:00 to 15:10 98.42 97.79 97.19 96.45 95.81 95.55
5/14/2022 15:00 to 14:10 95.69 96.04 96.04 96.18 96.43 96.76
5/14/2022 14:00 to 13:10 97.17 97.38 97.33 97.27 97.38 97.44
5/14/2022 13:00 to 12:10 97.15 97.03 96.78 96.16 95.90 95.81
5/14/2022 12:00 to 11:10 96.02 96.10 96.10 96.47 96.45 96.51
5/14/2022 11:00 to 10:10 96.22 96.04 95.92 96.10 95.96 96.14
5/14/2022 10:00 to 9:10 96.24 96.49 96.61 96.72 96.43 96.37
5/14/2022 09:00 to 8:10 96.39 96.45 96.92 97.03 97.23 97.44
5/14/2022 08:00 to 7:10 97.17 97.17 97.17 97.17 97.21 97.27
5/14/2022 07:00 to 6:10 97.40 97.46 97.72 97.83 98.01 98.14
5/14/2022 06:00 to 5:10 98.61 99.18 99.43 99.35 99.29 99.55
5/14/2022 05:00 to 4:10 99.49 99.86 100.09 100.09 100.31 100.50
5/14/2022 04:00 to 3:10 100.31 100.19 100.11 99.51 99.27 98.40
5/14/2022 03:00 to 2:10 97.77 97.79 99.06 99.51 100.11 99.96
5/14/2022 02:00 to 1:10 99.80 99.51 99.31 98.77 98.59 97.85
5/14/2022 01:00 to 0:10 96.98 96.74 96.31 95.61 94.77 92.75
5/14/2022 00:00 to 23:10 90.92 91.91 92.48 92.03 91.89 92.09
5/13/2022 23:00 to 22:10 92.05 91.68 91.35 91.77 91.87 91.74
5/13/2022 22:00 to 21:10 91.31 89.94 87.80 87.72 87.96 87.88
5/13/2022 21:00 to 20:10 87.84 87.31 86.77 86.94 87.80 87.98
5/13/2022 20:00 to 19:10 88.13 88.33 88.62 89.16 89.32 89.67
5/13/2022 19:00 to 18:10 89.96 89.94 90.06 88.52 86.92 87.39
5/13/2022 18:00 to 17:10 87.66 88.27 88.58 89.16 89.69 89.71
5/13/2022 17:00 to 16:10 89.79 89.77 90.00 89.85 90.14 90.70
5/13/2022 16:00 to 15:10 90.82 90.33 90.10 90.68 90.72 90.20
5/13/2022 15:00 to 14:10 89.94 90.08 90.31 90.20 90.37 90.88
5/13/2022 14:00 to 13:10 90.63 91.00 91.35 91.54 91.97 92.61
5/13/2022 13:00 to 12:10 92.69 91.56 91.37 91.35 92.59 93.20
5/13/2022 12:00 to 11:10 93.24 93.18 92.61 92.11 91.99 92.50
5/13/2022 11:00 to 10:10 92.14 91.79 91.37 90.90 90.78 90.74
5/13/2022 10:00 to 9:10 90.90 91.09 90.61 90.57 90.72 91.23
5/13/2022 09:00 to 8:10 91.19 90.92 91.87 93.27 93.94 94.09
5/13/2022 08:00 to 7:10 93.98 93.37 93.45 93.92 93.86 93.98
5/13/2022 07:00 to 6:10 94.11 94.13 94.54 95.09 95.03 94.79
5/13/2022 06:00 to 5:10 94.74 94.44 93.96 94.11 94.05 93.55
5/13/2022 05:00 to 4:10 93.16 93.27 93.10 93.33 93.51 93.88
5/13/2022 04:00 to 3:10 94.40 94.70 95.09 95.24 95.36 95.32
5/13/2022 03:00 to 2:10 95.32 95.53 95.44 95.28 95.55 96.24
5/13/2022 02:00 to 1:10 97.38 98.24 98.88 99.33 99.78 99.86
5/13/2022 01:00 to 0:10 100.07 100.01 99.76 99.68 99.35 98.53
5/13/2022 00:00 to 23:10 98.30 97.33 96.76 95.63 94.15 93.20
5/12/2022 23:00 to 22:10 91.95 91.50 91.29 91.74 92.46 92.71
5/12/2022 22:00 to 21:10 92.81 93.27 93.49 93.37 93.12 93.29
5/12/2022 21:00 to 20:10 93.27 92.50 90.86 87.94 87.86 88.27
5/12/2022 20:00 to 19:10 89.79 90.10 89.57 89.26 89.96 90.33
5/12/2022 19:00 to 18:10 91.83 92.73 93.10 93.16 93.00 92.67
5/12/2022 18:00 to 17:10 92.09 91.64 91.50 92.11 92.34 92.14
5/12/2022 17:00 to 16:10 91.25 90.49 89.48 90.29 90.61 90.24
5/12/2022 16:00 to 15:10 90.22 89.20 88.66 88.91 88.54 87.57
5/12/2022 15:00 to 14:10 86.65 86.57 86.65 86.75 87.08 87.45
5/12/2022 14:00 to 13:10 88.07 88.37 88.35 88.19 88.62 89.07
5/12/2022 13:00 to 12:10 89.40 89.11 88.87 88.91 89.01 88.89
5/12/2022 12:00 to 11:10 88.89 89.09 89.28 89.30 89.94 89.36
5/12/2022 11:00 to 10:10 89.28 88.97 88.93 88.77 88.54 88.72
5/12/2022 10:00 to 9:10 88.89 89.28 89.48 90.33 90.80 91.07
5/12/2022 09:00 to 8:10 91.13 90.16 90.37 89.83 90.06 90.53
5/12/2022 08:00 to 7:10 90.39 90.29 89.81 89.44 88.95 88.99
5/12/2022 07:00 to 6:10 89.46 89.94 90.22 90.43 90.86 92.03
5/12/2022 06:00 to 5:10 92.50 92.30 92.16 92.81 93.27 93.31
5/12/2022 05:00 to 4:10 93.68 94.40 95.32 95.75 96.45 97.40
5/12/2022 04:00 to 3:10 98.30 99.16 99.92 100.25 100.50 100.68
5/12/2022 03:00 to 2:10 100.64 100.62 100.46 100.33 99.94 99.72
5/12/2022 02:00 to 1:10 99.61 99.37 99.45 99.53 99.16 99.00
5/12/2022 01:00 to 0:10 98.55 98.24 98.09 97.54 96.88 96.57
5/12/2022 00:00 to 23:10 96.72 96.94 97.25 97.64 97.77 97.93
5/11/2022 23:00 to 22:10 98.05 98.32 98.36 98.01 97.97 97.62
5/11/2022 22:00 to 21:10 96.98 96.90 96.98 97.29 98.28 98.71
5/11/2022 21:00 to 20:10 99.37 99.53 100.29 100.62 100.52 100.91
5/11/2022 20:00 to 19:10 100.89 100.91 100.91 100.91 100.91 100.91
5/11/2022 19:00 to 18:10 100.89 100.72 100.68 100.40 100.31 100.19
5/11/2022 18:00 to 17:10 99.76 99.59 99.57 99.72 99.68 100.05
5/11/2022 17:00 to 16:10 100.23 100.31 100.50 100.36 100.27 100.48
5/11/2022 16:00 to 15:10 100.50 100.42 100.46 100.23 100.01 99.70
5/11/2022 15:00 to 14:10 99.68 100.25 100.77 100.81 100.91 100.91
5/11/2022 14:00 to 13:10 100.91 100.91 100.91 100.91 100.91 100.91
5/11/2022 13:00 to 12:10 100.91 100.91 100.91 100.85 100.81 100.54
5/11/2022 12:00 to 11:10 99.72 99.31 98.61 98.67 98.61 98.57
5/11/2022 11:00 to 10:10 98.61 98.05 98.11 97.40 96.06 94.23
5/11/2022 10:00 to 9:10 91.56 91.66 92.14 92.69 93.74 95.07
5/11/2022 09:00 to 8:10 96.33 97.33 97.58 97.27 96.45 95.90
5/11/2022 08:00 to 7:10 94.77 93.31 93.02 92.38 91.64 91.68
5/11/2022 07:00 to 6:10 91.81 91.15 90.51 90.59 91.64 92.07
5/11/2022 06:00 to 5:10 91.58 91.27 90.96 90.90 91.03 90.96
5/11/2022 05:00 to 4:10 90.43 90.39 90.49 90.66 90.70 90.53
5/11/2022 04:00 to 3:10 90.33 90.02 89.87 89.75 89.53 89.01
5/11/2022 03:00 to 2:10 88.89 88.85 89.24 89.55 89.87 90.10
5/11/2022 02:00 to 1:10 90.49 91.21 91.40 91.74 92.79 94.03
5/11/2022 01:00 to 0:10 95.22 95.16 94.09 93.22 90.80 88.35
5/11/2022 00:00 to 23:10 88.35 88.35 88.27 88.15 87.86 87.45
5/10/2022 23:00 to 22:10 87.39 87.86 87.53 87.35 87.57 87.33
5/10/2022 22:00 to 21:10 87.29 87.78 87.86 87.76 87.61 87.86
5/10/2022 21:00 to 20:10 87.96 87.39 85.85 85.87 86.07 86.16
5/10/2022 20:00 to 19:10 86.50 86.59 87.20 87.39 87.45 86.28
5/10/2022 19:00 to 18:10 84.98 85.85 87.06 86.18 87.10 87.20
5/10/2022 18:00 to 17:10 87.10 86.77 86.22 85.99 85.44 84.90
5/10/2022 17:00 to 16:10 84.78 84.66 84.98 85.13 84.70 84.74
5/10/2022 16:00 to 15:10 85.33 85.15 84.76 84.45 84.84 84.92
5/10/2022 15:00 to 14:10 85.03 84.94 84.94 85.68 85.99 85.72
5/10/2022 14:00 to 13:10 85.46 85.27 84.45 84.86 85.64 85.35
5/10/2022 13:00 to 12:10 85.17 86.09 85.89 86.07 86.20 85.70
5/10/2022 12:00 to 11:10 85.39 85.48 85.76 86.42 86.67 86.57
5/10/2022 11:00 to 10:10 86.40 86.65 87.22 87.31 87.14 87.74
5/10/2022 10:00 to 9:10 87.82 88.37 88.48 88.21 88.27 88.83
5/10/2022 09:00 to 8:10 88.27 88.00 87.61 87.51 87.41 87.55
5/10/2022 08:00 to 7:10 87.84 87.84 87.20 86.61 86.16 86.18
5/10/2022 07:00 to 6:10 86.55 87.12 87.51 86.57 86.26 87.20
5/10/2022 06:00 to 5:10 86.87 86.05 85.54 85.85 86.16 85.91
5/10/2022 05:00 to 4:10 86.55 86.42 85.87 86.71 87.35 87.20
5/10/2022 04:00 to 3:10 86.92 87.06 86.94 87.29 86.44 85.87
5/10/2022 03:00 to 2:10 84.31 83.83 83.05 83.16 83.73 83.69
5/10/2022 02:00 to 1:10 83.65 83.38 83.73 83.85 83.40 84.12
5/10/2022 01:00 to 0:10 84.16 83.69 83.32 83.01 83.83 83.73